| time (UTC) | temp F | wind direction | speed knots | gust knots | rain 1hr in | rain 24hr in | rain mn in | humidity % | barometer mb |
| 20260831210619 | 82 | 0 | 1.7 | 5.2 | 0.00 | 0.00 | 0.00 | 39 | 1008.2 |
| 20260831210122 | 81 | 170 | 0.9 | 3.5 | 0.00 | 0.00 | 0.00 | 39 | 1008.3 |
| 20260831210116 | 82 | 42 | 0.9 | 3.5 | 0.00 | 0.00 | 0.00 | 40 | 1008.2 |
| 20260831205729 | 81 | 175 | 1.7 | 3.5 | 0.00 | 0.00 | 0.00 | 40 | 1008.4 |
| 20260831205231 | 81 | 146 | 1.7 | 4.3 | 0.00 | 0.00 | 0.00 | 40 | 1008.4 |
| 20260831204116 | 81 | 191 | 1.7 | 4.3 | 0.00 | 0.00 | 0.00 | 39 | 1008.4 |
| 20260831203617 | 81 | 134 | 0.9 | 4.3 | 0.00 | 0.00 | 0.00 | 40 | 1008.5 |
| 20260831203120 | 80 | 163 | 1.7 | 3.5 | 0.00 | 0.00 | 0.00 | 41 | 1008.6 |
| 20260831203116 | 81 | 162 | 0.9 | 3.5 | 0.00 | 0.00 | 0.00 | 40 | 1008.6 |
| 20260831202116 | 80 | 174 | 1.7 | 3.5 | 0.00 | 0.00 | 0.00 | 41 | 1008.7 |
| 20260831201616 | 80 | 103 | 1.7 | 3.5 | 0.00 | 0.00 | 0.00 | 42 | 1008.8 |
| 20260831201114 | 80 | 79 | 0.9 | 3.5 | 0.00 | 0.00 | 0.00 | 42 | 1008.9 |
| 20260831200614 | 79 | 157 | 0.9 | 3.5 | 0.00 | 0.00 | 0.00 | 41 | 1009.0 |
| 20260831200114 | 79 | 22 | 1.7 | 4.3 | 0.00 | 0.00 | 0.00 | 43 | 1009.0 |
| 20260831195614 | 78 | 15 | 0.9 | 4.3 | 0.00 | 0.00 | 0.00 | 42 | 1009.1 |
| 20260831195119 | 78 | 81 | 0.9 | 4.3 | 0.00 | 0.00 | 0.00 | 42 | 1009.2 |
| 20260831195115 | 78 | 117 | 0.9 | 4.3 | 0.00 | 0.00 | 0.00 | 43 | 1009.2 |
| 20260831194114 | 78 | 355 | 1.7 | 4.3 | 0.00 | 0.00 | 0.00 | 44 | 1009.3 |
| 20260831193614 | 77 | 194 | 1.7 | 6.1 | 0.00 | 0.00 | 0.00 | 44 | 1009.4 |
| 20260831193114 | 77 | 175 | 1.7 | 6.1 | 0.00 | 0.00 | 0.00 | 44 | 1009.4 |
| 20260831192613 | 76 | 105 | 1.7 | 4.3 | 0.00 | 0.00 | 0.00 | 46 | 1009.5 |
| 20260831192112 | 76 | 232 | 1.7 | 4.3 | 0.00 | 0.00 | 0.00 | 45 | 1009.6 |
| 20260831191612 | 76 | 227 | 1.7 | 5.2 | 0.00 | 0.00 | 0.00 | 45 | 1009.7 |
| 20260831191112 | 76 | 334 | 0.9 | 5.2 | 0.00 | 0.00 | 0.00 | 45 | 1009.7 |
| 20260831190611 | 76 | 355 | 0.9 | 5.2 | 0.00 | 0.00 | 0.00 | 45 | 1009.7 |
| 20260831190112 | 76 | 74 | 1.7 | 5.2 | 0.00 | 0.00 | 0.00 | 45 | 1009.9 |
| 20260831185614 | 76 | 178 | 1.7 | 4.3 | 0.00 | 0.00 | 0.00 | 46 | 1009.9 |
| 20260831185112 | 76 | 178 | 0.9 | 3.5 | 0.00 | 0.00 | 0.00 | 46 | 1009.9 |
| 20260831184612 | 76 | 179 | 0.9 | 2.6 | 0.00 | 0.00 | 0.00 | 46 | 1009.9 |
| 20260831184113 | 75 | 163 | 0.9 | 3.5 | 0.00 | 0.00 | 0.00 | 48 | 1010.0 |
| 20260831183611 | 74 | 178 | 0.9 | 3.5 | 0.00 | 0.00 | 0.00 | 49 | 1010.1 |
| 20260831183109 | 73 | 181 | 1.7 | 4.3 | 0.00 | 0.00 | 0.00 | 49 | 1010.2 |
| 20260831182611 | 73 | 178 | 0.9 | 4.3 | 0.00 | 0.00 | 0.00 | 51 | 1010.2 |
| 20260831182110 | 73 | 153 | 0.9 | 4.3 | 0.00 | 0.00 | 0.00 | 52 | 1010.3 |
| 20260831181610 | 72 | 192 | 0.9 | 4.3 | 0.00 | 0.00 | 0.00 | 52 | 1010.3 |
| 20260831181111 | 72 | 254 | 0.9 | 2.6 | 0.00 | 0.00 | 0.00 | 55 | 1010.3 |
| 20260831180616 | 71 | 273 | 0.9 | 3.5 | 0.00 | 0.00 | 0.00 | 54 | 1010.4 |
| 20260831180612 | 71 | 304 | 0.9 | 3.5 | 0.00 | 0.00 | 0.00 | 54 | 1010.4 |
| 20260831175616 | 71 | 181 | 0.0 | 2.6 | 0.00 | 0.00 | 0.00 | 55 | 1010.6 |
| 20260831175610 | 71 | 10 | 1.7 | 2.6 | 0.00 | 0.00 | 0.00 | 55 | 1010.5 |
| 20260831175110 | 71 | 287 | 0.9 | 3.5 | 0.00 | 0.00 | 0.00 | 54 | 1010.5 |
| 20260831174610 | 71 | 184 | 0.9 | 3.5 | 0.00 | 0.00 | 0.00 | 55 | 1010.6 |
| 20260831173609 | 70 | 170 | 0.9 | 3.5 | 0.00 | 0.00 | 0.00 | 57 | 1010.6 |
| 20260831173109 | 70 | 167 | 0.9 | 3.5 | 0.00 | 0.00 | 0.00 | 56 | 1010.7 |
| 20260831172606 | 70 | 182 | 0.9 | 2.6 | 0.00 | 0.00 | 0.00 | 57 | 1010.7 |
| 20260831172107 | 70 | 76 | 0.9 | 2.6 | 0.00 | 0.00 | 0.00 | 58 | 1010.7 |
| 20260831171607 | 69 | 133 | 0.9 | 3.5 | 0.00 | 0.00 | 0.00 | 58 | 1010.9 |
| 20260831171112 | 69 | 179 | 0.0 | 1.7 | 0.00 | 0.00 | 0.00 | 59 | 1011.0 |
| 20260831171107 | 69 | 191 | 0.9 | 3.5 | 0.00 | 0.00 | 0.00 | 58 | 1011.0 |
| 20260831170106 | 69 | 85 | 0.0 | 1.7 | 0.00 | 0.00 | 0.00 | 61 | 1011.0 |
| 20260831165607 | 68 | 73 | 0.0 | 2.6 | 0.00 | 0.00 | 0.00 | 63 | 1011.0 |
| 20260831165103 | 67 | 49 | 0.9 | 2.6 | 0.00 | 0.00 | 0.00 | 63 | 1011.1 |
| 20260831164604 | 67 | 13 | 0.9 | 2.6 | 0.00 | 0.00 | 0.00 | 64 | 1011.1 |
| 20260831164104 | 67 | 5 | 0.9 | 2.6 | 0.00 | 0.00 | 0.00 | 68 | 1011.2 |
| 20260831163604 | 65 | 290 | 0.0 | 2.6 | 0.00 | 0.00 | 0.00 | 68 | 1011.1 |
| 20260831163103 | 65 | 289 | 0.0 | 2.6 | 0.00 | 0.00 | 0.00 | 68 | 1011.1 |
| 20260831162603 | 65 | 230 | 0.0 | 0.0 | 0.00 | 0.00 | 0.00 | 70 | 1011.3 |
| 20260831162104 | 64 | 230 | 0.0 | 0.0 | 0.00 | 0.00 | 0.00 | 74 | 1011.3 |
| 20260831161603 | 62 | 230 | 0.0 | 1.7 | 0.00 | 0.00 | 0.00 | 76 | 1011.3 |
| 20260831161108 | 60 | 230 | 0.0 | 1.7 | 0.00 | 0.00 | 0.00 | 78 | 1011.5 |
| 20260831161103 | 61 | 230 | 0.0 | 1.7 | 0.00 | 0.00 | 0.00 | 78 | 1011.4 |
| 20260831160717 | 58 | 228 | 0.0 | 1.7 | 0.00 | 0.00 | 0.00 | 82 | 1011.5 |
| 20260831160104 | 59 | 230 | 0.0 | 1.7 | 0.00 | 0.00 | 0.00 | 80 | 1011.5 |
| 20260831155103 | 58 | 228 | 0.9 | 2.6 | 0.00 | 0.00 | 0.00 | 83 | 1011.6 |
| 20260831154604 | 57 | 221 | 0.9 | 2.6 | 0.00 | 0.00 | 0.00 | 83 | 1011.6 |
| 20260831154103 | 57 | 226 | 0.0 | 2.6 | 0.00 | 0.00 | 0.00 | 85 | 1011.6 |
| 20260831153604 | 56 | 277 | 0.0 | 0.0 | 0.00 | 0.00 | 0.00 | 86 | 1011.7 |
| 20260831153105 | 56 | 231 | 0.0 | 0.0 | 0.00 | 0.00 | 0.00 | 87 | 1011.6 |
| 20260831152604 | 55 | 228 | 0.0 | 0.0 | 0.00 | 0.00 | 0.00 | 88 | 1011.7 |
| 20260831152108 | 54 | 213 | 0.0 | 0.0 | 0.00 | 0.00 | 0.00 | 90 | 1011.7 |
| 20260831152103 | 55 | 215 | 0.0 | 0.0 | 0.00 | 0.00 | 0.00 | 89 | 1011.7 |
| 20260831151109 | 53 | 213 | 0.0 | 0.0 | 0.00 | 0.00 | 0.00 | 92 | 1011.8 |
| 20260831151104 | 54 | 213 | 0.0 | 0.0 | 0.00 | 0.00 | 0.00 | 91 | 1011.8 |
| 20260831150104 | 53 | 213 | 0.0 | 0.0 | 0.00 | 0.00 | 0.00 | 92 | 1011.8 |
| 20260831145604 | 52 | 213 | 0.0 | 0.0 | 0.00 | 0.00 | 0.00 | 92 | 1011.9 |
| 20260831145103 | 52 | 213 | 0.0 | 0.0 | 0.00 | 0.00 | 0.00 | 93 | 1011.9 |
| 20260831144604 | 51 | 213 | 0.0 | 0.0 | 0.00 | 0.00 | 0.00 | 93 | 1011.9 |
| 20260831144105 | 51 | 212 | 0.0 | 0.0 | 0.00 | 0.00 | 0.00 | 94 | 1011.8 |
| 20260831143605 | 50 | 212 | 0.0 | 0.0 | 0.00 | 0.00 | 0.00 | 95 | 1011.7 |
| 20260831143104 | 50 | 212 | 0.0 | 0.0 | 0.00 | 0.00 | 0.00 | 95 | 1011.7 |
| 20260831142603 | 49 | 212 | 0.0 | 0.0 | 0.00 | 0.00 | 0.00 | 95 | 1011.8 |
| 20260831142105 | 48 | 174 | 0.0 | 0.0 | 0.00 | 0.00 | 0.00 | 94 | 1011.7 |
| 20260831141609 | 48 | 174 | 0.0 | 0.0 | 0.00 | 0.00 | 0.00 | 93 | 1011.8 |
| 20260831141605 | 48 | 174 | 0.0 | 0.0 | 0.00 | 0.00 | 0.00 | 92 | 1011.7 |
| 20260831141216 | 48 | 174 | 0.0 | 0.0 | 0.00 | 0.00 | 0.00 | 91 | 1011.8 |
| 20260831140108 | 49 | 174 | 0.0 | 0.0 | 0.00 | 0.00 | 0.00 | 92 | 1011.7 |
| 20260831135602 | 48 | 174 | 0.0 | 0.0 | 0.00 | 0.00 | 0.00 | 90 | 1011.7 |
| 20260831134603 | 49 | 174 | 0.0 | 0.0 | 0.00 | 0.00 | 0.00 | 91 | 1011.8 |
| 20260831134102 | 49 | 174 | 0.0 | 0.0 | 0.00 | 0.00 | 0.00 | 91 | 1011.8 |
| 20260831133602 | 49 | 174 | 0.0 | 0.0 | 0.00 | 0.00 | 0.00 | 91 | 1011.8 |
| 20260831133108 | 49 | 174 | 0.0 | 0.0 | 0.00 | 0.00 | 0.00 | 90 | 1011.9 |
| 20260831133103 | 49 | 174 | 0.0 | 0.0 | 0.00 | 0.00 | 0.00 | 91 | 1011.8 |
| 20260831132101 | 50 | 174 | 0.0 | 0.0 | 0.00 | 0.00 | 0.00 | 90 | 1011.9 |
| 20260831131600 | 50 | 174 | 0.0 | 0.0 | 0.00 | 0.00 | 0.00 | 91 | 1011.9 |
| 20260831131103 | 51 | 174 | 0.0 | 0.0 | 0.00 | 0.00 | 0.00 | 91 | 1012.0 |
| 20260831131057 | 50 | 174 | 0.0 | 0.0 | 0.00 | 0.00 | 0.00 | 91 | 1011.9 |
| 20260831130057 | 51 | 174 | 0.0 | 0.0 | 0.00 | 0.00 | 0.00 | 91 | 1012.0 |
| 20260831125711 | 50 | 174 | 0.0 | 0.0 | 0.00 | 0.00 | 0.00 | 92 | 1011.9 |
| 20260831124557 | 50 | 174 | 0.0 | 0.0 | 0.00 | 0.00 | 0.00 | 91 | 1011.9 |
| 20260831124057 | 50 | 174 | 0.0 | 0.0 | 0.00 | 0.00 | 0.00 | 91 | 1011.9 |
| 20260831123558 | 51 | 174 | 0.0 | 0.0 | 0.00 | 0.00 | 0.00 | 91 | 1011.9 |
| 20260831123057 | 50 | 174 | 0.0 | 0.0 | 0.00 | 0.00 | 0.00 | 92 | 1012.0 |
| 20260831122556 | 50 | 173 | 0.0 | 0.0 | 0.00 | 0.00 | 0.00 | 92 | 1012.0 |
| 20260831122053 | 50 | 174 | 0.0 | 0.0 | 0.00 | 0.00 | 0.00 | 90 | 1012.0 |
| 20260831121554 | 50 | 174 | 0.0 | 0.0 | 0.00 | 0.00 | 0.00 | 90 | 1012.1 |
| 20260831121053 | 50 | 174 | 0.0 | 0.0 | 0.00 | 0.00 | 0.00 | 91 | 1012.2 |
| 20260831120553 | 51 | 174 | 0.0 | 0.0 | 0.00 | 0.00 | 0.00 | 90 | 1012.2 |
| 20260831120055 | 50 | 173 | 0.0 | 0.0 | 0.00 | 0.00 | 0.00 | 91 | 1012.3 |
| 20260831120051 | 51 | 174 | 0.0 | 0.0 | 0.00 | 0.00 | 0.00 | 91 | 1012.2 |
| 20260831115051 | 50 | 173 | 0.0 | 0.0 | 0.00 | 0.00 | 0.00 | 90 | 1012.3 |
| 20260831114551 | 50 | 173 | 0.0 | 0.0 | 0.00 | 0.00 | 0.00 | 89 | 1012.3 |
| 20260831114051 | 51 | 173 | 0.0 | 0.0 | 0.00 | 0.00 | 0.00 | 89 | 1012.4 |
| 20260831113551 | 51 | 173 | 0.0 | 0.0 | 0.00 | 0.00 | 0.00 | 89 | 1012.4 |
| 20260831113053 | 51 | 173 | 0.0 | 0.0 | 0.00 | 0.00 | 0.00 | 90 | 1012.4 |
| 20260831113049 | 51 | 173 | 0.0 | 0.0 | 0.00 | 0.00 | 0.00 | 89 | 1012.4 |
| 20260831112050 | 51 | 173 | 0.0 | 0.0 | 0.00 | 0.00 | 0.00 | 91 | 1012.4 |
| 20260831111549 | 51 | 173 | 0.0 | 0.0 | 0.00 | 0.00 | 0.00 | 91 | 1012.5 |
| 20260831111049 | 51 | 173 | 0.0 | 0.0 | 0.00 | 0.00 | 0.00 | 90 | 1012.5 |
| 20260831110549 | 51 | 173 | 0.0 | 0.0 | 0.00 | 0.00 | 0.00 | 90 | 1012.4 |
| 20260831110049 | 51 | 173 | 0.0 | 0.0 | 0.00 | 0.00 | 0.00 | 90 | 1012.4 |
| 20260831105551 | 51 | 173 | 0.0 | 0.0 | 0.00 | 0.00 | 0.00 | 91 | 1012.4 |
| 20260831105050 | 51 | 173 | 0.0 | 0.0 | 0.00 | 0.00 | 0.00 | 90 | 1012.5 |
| 20260831104548 | 51 | 173 | 0.0 | 1.7 | 0.00 | 0.00 | 0.00 | 90 | 1012.5 |
| 20260831104048 | 51 | 173 | 0.0 | 1.7 | 0.00 | 0.00 | 0.00 | 90 | 1012.5 |
| 20260831103553 | 51 | 173 | 0.0 | 0.0 | 0.00 | 0.00 | 0.00 | 89 | 1012.6 |
| 20260831103548 | 51 | 173 | 0.0 | 1.7 | 0.00 | 0.00 | 0.00 | 90 | 1012.5 |
| 20260831103047 | 51 | 173 | 0.0 | 1.7 | 0.00 | 0.00 | 0.00 | 90 | 1012.5 |
| 20260831102047 | 51 | 173 | 0.0 | 0.0 | 0.00 | 0.00 | 0.00 | 89 | 1012.6 |
| 20260831101547 | 51 | 173 | 0.0 | 0.0 | 0.00 | 0.00 | 0.00 | 89 | 1012.6 |
| 20260831101047 | 51 | 173 | 0.0 | 0.0 | 0.00 | 0.00 | 0.00 | 88 | 1012.6 |
| 20260831100548 | 51 | 173 | 0.0 | 0.0 | 0.00 | 0.00 | 0.00 | 88 | 1012.8 |
| 20260831100047 | 51 | 173 | 0.0 | 0.0 | 0.00 | 0.00 | 0.00 | 87 | 1012.7 |
| 20260831095548 | 52 | 173 | 0.0 | 0.0 | 0.00 | 0.00 | 0.00 | 87 | 1012.8 |
| 20260831095046 | 52 | 173 | 0.0 | 1.7 | 0.00 | 0.00 | 0.00 | 87 | 1012.9 |
| 20260831094545 | 52 | 173 | 0.0 | 1.7 | 0.00 | 0.00 | 0.00 | 87 | 1012.9 |
| 20260831094046 | 53 | 173 | 0.0 | 1.7 | 0.00 | 0.00 | 0.00 | 87 | 1012.9 |
| 20260831093545 | 53 | 173 | 0.9 | 1.7 | 0.00 | 0.00 | 0.00 | 88 | 1013.1 |
| 20260831093045 | 53 | 173 | 0.0 | 1.7 | 0.00 | 0.00 | 0.00 | 88 | 1013.1 |
| 20260831092547 | 53 | 173 | 0.0 | 1.7 | 0.00 | 0.00 | 0.00 | 89 | 1013.2 |
| 20260831092045 | 53 | 173 | 0.0 | 1.7 | 0.00 | 0.00 | 0.00 | 89 | 1013.2 |
| 20260831091546 | 53 | 173 | 0.0 | 0.9 | 0.00 | 0.00 | 0.00 | 89 | 1013.3 |
| 20260831091045 | 52 | 173 | 0.0 | 0.0 | 0.00 | 0.00 | 0.00 | 87 | 1013.3 |
| 20260831090545 | 53 | 173 | 0.0 | 0.0 | 0.00 | 0.00 | 0.00 | 87 | 1013.3 |
| 20260831090043 | 53 | 173 | 0.0 | 0.0 | 0.00 | 0.00 | 0.00 | 87 | 1013.4 |
| 20260831085543 | 53 | 173 | 0.0 | 1.7 | 0.00 | 0.00 | 0.00 | 87 | 1013.5 |
| 20260831085044 | 53 | 173 | 0.0 | 1.7 | 0.00 | 0.00 | 0.00 | 88 | 1013.5 |
| 20260831084543 | 53 | 173 | 0.0 | 0.0 | 0.00 | 0.00 | 0.00 | 87 | 1013.5 |
| 20260831084043 | 53 | 173 | 0.0 | 0.0 | 0.00 | 0.00 | 0.00 | 86 | 1013.5 |
| 20260831083543 | 54 | 173 | 0.0 | 0.0 | 0.00 | 0.00 | 0.00 | 85 | 1013.6 |
| 20260831083043 | 54 | 173 | 0.0 | 0.0 | 0.00 | 0.00 | 0.00 | 85 | 1013.6 |
| 20260831082547 | 54 | 173 | 0.0 | 1.7 | 0.00 | 0.00 | 0.00 | 87 | 1013.6 |
| 20260831082543 | 54 | 173 | 0.0 | 1.7 | 0.00 | 0.00 | 0.00 | 87 | 1013.6 |
| 20260831081543 | 54 | 171 | 0.0 | 1.7 | 0.00 | 0.00 | 0.00 | 87 | 1013.8 |
| 20260831081043 | 54 | 201 | 0.0 | 0.0 | 0.00 | 0.00 | 0.00 | 86 | 1013.8 |
| 20260831080544 | 54 | 201 | 0.0 | 0.0 | 0.00 | 0.00 | 0.00 | 85 | 1013.9 |
| 20260831080043 | 54 | 201 | 0.0 | 1.7 | 0.00 | 0.00 | 0.00 | 86 | 1013.9 |
| 20260831075548 | 54 | 173 | 0.0 | 0.0 | 0.00 | 0.00 | 0.00 | 86 | 1014.0 |
| 20260831075543 | 54 | 201 | 0.0 | 1.7 | 0.00 | 0.00 | 0.00 | 86 | 1014.0 |
| 20260831074540 | 54 | 173 | 0.0 | 1.7 | 0.00 | 0.00 | 0.00 | 85 | 1014.0 |
| 20260831074040 | 54 | 173 | 0.0 | 1.7 | 0.00 | 0.00 | 0.00 | 85 | 1014.0 |
| 20260831073540 | 54 | 173 | 0.0 | 1.7 | 0.00 | 0.00 | 0.00 | 83 | 1014.1 |
| 20260831073042 | 55 | 173 | 0.0 | 0.9 | 0.00 | 0.00 | 0.00 | 83 | 1014.2 |
| 20260831072544 | 55 | 173 | 0.0 | 1.7 | 0.00 | 0.00 | 0.00 | 82 | 1014.2 |
| 20260831072539 | 55 | 173 | 0.0 | 1.7 | 0.00 | 0.00 | 0.00 | 84 | 1014.2 |
| 20260831071539 | 56 | 173 | 0.0 | 1.7 | 0.00 | 0.00 | 0.00 | 83 | 1014.2 |
| 20260831071039 | 56 | 173 | 0.0 | 1.7 | 0.00 | 0.00 | 0.00 | 83 | 1014.3 |
| 20260831070539 | 56 | 173 | 0.0 | 2.6 | 0.00 | 0.00 | 0.00 | 83 | 1014.2 |
| 20260831070040 | 56 | 173 | 0.9 | 2.6 | 0.00 | 0.00 | 0.00 | 83 | 1014.3 |
| 20260831065545 | 56 | 173 | 0.9 | 2.6 | 0.00 | 0.00 | 0.00 | 83 | 1014.5 |
| 20260831065539 | 56 | 173 | 0.9 | 2.6 | 0.00 | 0.00 | 0.00 | 83 | 1014.4 |
| 20260831064538 | 56 | 173 | 0.0 | 1.7 | 0.00 | 0.00 | 0.00 | 83 | 1014.5 |
| 20260831064043 | 56 | 205 | 0.0 | 0.0 | 0.00 | 0.00 | 0.00 | 83 | 1014.5 |
| 20260831064039 | 56 | 205 | 0.0 | 1.7 | 0.00 | 0.00 | 0.00 | 83 | 1014.5 |
| 20260831063037 | 56 | 205 | 0.0 | 0.0 | 0.00 | 0.00 | 0.00 | 83 | 1014.5 |
| 20260831062537 | 56 | 205 | 0.0 | 0.0 | 0.00 | 0.00 | 0.00 | 84 | 1014.5 |
| 20260831062037 | 56 | 205 | 0.0 | 0.0 | 0.00 | 0.00 | 0.00 | 83 | 1014.6 |
| 20260831061542 | 56 | 205 | 0.0 | 0.0 | 0.00 | 0.00 | 0.00 | 81 | 1014.8 |
| 20260831061538 | 56 | 205 | 0.0 | 0.0 | 0.00 | 0.00 | 0.00 | 81 | 1014.7 |
| 20260831060537 | 56 | 205 | 0.0 | 0.0 | 0.00 | 0.00 | 0.00 | 81 | 1014.8 |
| 20260831060036 | 57 | 205 | 0.0 | 0.0 | 0.00 | 0.00 | 0.00 | 82 | 1014.9 |
| 20260831055535 | 57 | 205 | 0.0 | 0.0 | 0.00 | 0.00 | 0.00 | 82 | 1015.0 |
| 20260831055035 | 57 | 205 | 0.0 | 0.0 | 0.00 | 0.00 | 0.00 | 81 | 1015.0 |
| 20260831054537 | 57 | 205 | 0.0 | 0.0 | 0.00 | 0.00 | 0.00 | 81 | 1015.0 |
| 20260831054035 | 57 | 205 | 0.0 | 0.0 | 0.00 | 0.00 | 0.00 | 80 | 1014.9 |
| 20260831053535 | 57 | 205 | 0.0 | 1.7 | 0.00 | 0.00 | 0.00 | 78 | 1015.1 |
| 20260831053035 | 58 | 205 | 0.0 | 1.7 | 0.00 | 0.00 | 0.00 | 78 | 1015.2 |
| 20260831052540 | 58 | 205 | 0.0 | 1.7 | 0.00 | 0.00 | 0.00 | 78 | 1015.2 |
| 20260831052535 | 58 | 205 | 0.0 | 0.9 | 0.00 | 0.00 | 0.00 | 78 | 1015.2 |
| 20260831052035 | 58 | 205 | 0.0 | 1.7 | 0.00 | 0.00 | 0.00 | 77 | 1015.2 |
| 20260831051649 | 58 | 205 | 0.0 | 0.0 | 0.00 | 0.00 | 0.00 | 77 | 1015.3 |
| 20260831050533 | 58 | 205 | 0.0 | 0.0 | 0.00 | 0.00 | 0.00 | 76 | 1015.3 |
| 20260831050033 | 59 | 205 | 0.0 | 0.0 | 0.00 | 0.00 | 0.00 | 76 | 1015.4 |
| 20260831045533 | 59 | 205 | 0.0 | 0.0 | 0.00 | 0.00 | 0.00 | 75 | 1015.4 |
| 20260831045033 | 59 | 205 | 0.0 | 0.0 | 0.00 | 0.00 | 0.00 | 75 | 1015.4 |
| 20260831044651 | 60 | 205 | 0.0 | 0.0 | 0.00 | 0.00 | 0.00 | 73 | 1015.5 |
| 20260831044538 | 59 | 205 | 0.0 | 0.0 | 0.00 | 0.00 | 0.00 | 74 | 1015.5 |
| 20260831044532 | 59 | 205 | 0.0 | 0.0 | 0.00 | 0.00 | 0.00 | 74 | 1015.4 |
| 20260831044145 | 59 | 205 | 0.0 | 0.0 | 0.00 | 0.00 | 0.00 | 73 | 1015.5 |
| 20260831042534 | 60 | 205 | 0.0 | 0.0 | 0.00 | 0.00 | 0.00 | 73 | 1015.5 |
| 20260831042034 | 60 | 205 | 0.0 | 0.0 | 0.00 | 0.00 | 0.00 | 72 | 1015.5 |
| 20260831041728 | 60 | 205 | 0.0 | 0.0 | 0.00 | 0.00 | 0.00 | 71 | 1015.5 |
| 20260831041711 | 60 | 205 | 0.0 | 0.0 | 0.00 | 0.00 | 0.00 | 72 | 1015.5 |
| 20260831040532 | 61 | 205 | 0.0 | 0.0 | 0.00 | 0.00 | 0.00 | 71 | 1015.4 |
| 20260831040031 | 61 | 205 | 0.0 | 0.0 | 0.00 | 0.00 | 0.00 | 70 | 1015.4 |
| 20260831035530 | 62 | 205 | 0.0 | 0.0 | 0.00 | 0.00 | 0.00 | 71 | 1015.4 |
| 20260831035031 | 62 | 205 | 0.0 | 0.0 | 0.00 | 0.00 | 0.00 | 70 | 1015.4 |
| 20260831034531 | 62 | 205 | 0.0 | 0.0 | 0.00 | 0.00 | 0.00 | 71 | 1015.4 |
| 20260831034031 | 62 | 205 | 0.0 | 0.0 | 0.00 | 0.00 | 0.00 | 70 | 1015.3 |
| 20260831033531 | 63 | 205 | 0.0 | 0.0 | 0.00 | 0.00 | 0.00 | 69 | 1015.3 |
| 20260831033029 | 64 | 205 | 0.0 | 0.0 | 0.00 | 0.00 | 0.00 | 68 | 1015.3 |
| 20260831032527 | 64 | 205 | 0.0 | 2.6 | 0.00 | 0.00 | 0.00 | 66 | 1015.3 |
| 20260831032028 | 65 | 205 | 0.0 | 2.6 | 0.00 | 0.00 | 0.00 | 65 | 1015.3 |
| 20260831031528 | 66 | 198 | 0.0 | 1.7 | 0.00 | 0.00 | 0.00 | 64 | 1015.3 |
| 20260831031025 | 66 | 198 | 0.0 | 2.6 | 0.00 | 0.00 | 0.00 | 64 | 1015.3 |
| 20260831030526 | 67 | 198 | 0.9 | 2.6 | 0.00 | 0.00 | 0.00 | 63 | 1015.3 |
| 20260831030025 | 67 | 22 | 0.9 | 2.6 | 0.00 | 0.00 | 0.00 | 63 | 1015.2 |
| 20260831025524 | 67 | 229 | 0.0 | 2.6 | 0.00 | 0.00 | 0.00 | 62 | 1015.2 |
| 20260831025024 | 68 | 194 | 0.0 | 1.7 | 0.00 | 0.00 | 0.00 | 62 | 1015.2 |
| 20260831024524 | 68 | 194 | 0.0 | 1.7 | 0.00 | 0.00 | 0.00 | 61 | 1015.1 |
| 20260831024023 | 69 | 242 | 0.0 | 1.7 | 0.00 | 0.00 | 0.00 | 60 | 1015.1 |
| 20260831023521 | 69 | 242 | 0.0 | 1.7 | 0.00 | 0.00 | 0.00 | 59 | 1015.2 |
| 20260831023021 | 70 | 246 | 0.0 | 2.6 | 0.00 | 0.00 | 0.00 | 58 | 1015.2 |
| 20260831022520 | 70 | 246 | 0.0 | 2.6 | 0.00 | 0.00 | 0.00 | 57 | 1015.2 |
| 20260831022018 | 71 | 246 | 0.9 | 3.5 | 0.00 | 0.00 | 0.00 | 57 | 1015.3 |
| 20260831021519 | 71 | 246 | 0.9 | 3.5 | 0.00 | 0.00 | 0.00 | 56 | 1015.2 |
| 20260831021018 | 72 | 246 | 0.9 | 6.1 | 0.00 | 0.00 | 0.00 | 53 | 1015.2 |
| 20260831020524 | 74 | 289 | 1.7 | 5.2 | 0.00 | 0.00 | 0.00 | 53 | 1015.3 |
| 20260831020518 | 72 | 265 | 1.7 | 6.1 | 0.00 | 0.00 | 0.00 | 53 | 1015.2 |
| 20260831015518 | 74 | 311 | 1.7 | 4.3 | 0.00 | 0.00 | 0.00 | 49 | 1015.3 |
| 20260831015019 | 75 | 296 | 1.7 | 4.3 | 0.00 | 0.00 | 0.00 | 46 | 1015.3 |
| 20260831014519 | 75 | 10 | 0.9 | 4.3 | 0.00 | 0.00 | 0.00 | 45 | 1015.4 |
| 20260831014019 | 76 | 5 | 1.7 | 4.3 | 0.00 | 0.00 | 0.00 | 45 | 1015.3 |
| 20260831013520 | 76 | 36 | 1.7 | 4.3 | 0.00 | 0.00 | 0.00 | 45 | 1015.3 |
| 20260831013019 | 76 | 78 | 0.9 | 4.3 | 0.00 | 0.00 | 0.00 | 45 | 1015.3 |
| 20260831012523 | 76 | 19 | 1.7 | 4.3 | 0.00 | 0.00 | 0.00 | 44 | 1015.4 |
| 20260831012518 | 76 | 19 | 0.9 | 4.3 | 0.00 | 0.00 | 0.00 | 44 | 1015.4 |
| 20260831011519 | 77 | 36 | 0.9 | 4.3 | 0.00 | 0.00 | 0.00 | 44 | 1015.4 |
| 20260831011019 | 77 | 69 | 1.7 | 4.3 | 0.00 | 0.00 | 0.00 | 44 | 1015.4 |
| 20260831010519 | 76 | 22 | 0.9 | 4.3 | 0.00 | 0.00 | 0.00 | 43 | 1015.4 |
| 20260831010021 | 77 | 22 | 0.9 | 4.3 | 0.00 | 0.00 | 0.00 | 43 | 1015.6 |
| 20260831005519 | 77 | 0 | 0.9 | 4.3 | 0.00 | 0.00 | 0.00 | 42 | 1015.6 |
| 20260831005018 | 77 | 9 | 1.7 | 7.8 | 0.00 | 0.00 | 0.00 | 43 | 1015.6 |
| 20260831004519 | 77 | 19 | 1.7 | 7.8 | 0.00 | 0.00 | 0.00 | 43 | 1015.7 |
| 20260831004018 | 77 | 180 | 0.9 | 2.6 | 0.00 | 0.00 | 0.00 | 42 | 1015.7 |
| 20260831003518 | 77 | 177 | 0.9 | 6.1 | 0.00 | 0.00 | 0.00 | 41 | 1015.9 |
| 20260831003019 | 77 | 25 | 1.7 | 6.1 | 0.00 | 0.00 | 0.00 | 42 | 1015.9 |
| 20260831002519 | 77 | 17 | 1.7 | 3.5 | 0.00 | 0.00 | 0.00 | 42 | 1015.9 |
| 20260831002024 | 77 | 265 | 1.7 | 7.0 | 0.00 | 0.00 | 0.00 | 42 | 1016.0 |
| 20260831002019 | 77 | 36 | 1.7 | 3.5 | 0.00 | 0.00 | 0.00 | 43 | 1016.0 |
| 20260831001024 | 77 | 265 | 0.9 | 2.6 | 0.00 | 0.00 | 0.00 | 41 | 1016.0 |
| 20260831001020 | 77 | 355 | 0.9 | 7.0 | 0.00 | 0.00 | 0.00 | 42 | 1016.0 |
| 20260831000023 | 77 | 315 | 0.9 | 3.5 | 0.00 | 0.00 | 0.00 | 41 | 1016.1 |
| 20260831000019 | 77 | 289 | 0.9 | 3.5 | 0.00 | 0.00 | 0.00 | 42 | 1016.1 |
| 20260830235018 | 78 | 0 | 0.9 | 2.6 | 0.00 | 0.00 | 0.00 | 41 | 1016.1 |
| 20260830234524 | 77 | 269 | 0.9 | 2.6 | 0.00 | 0.00 | 0.00 | 41 | 1016.3 |
| 20260830234519 | 78 | 114 | 0.9 | 2.6 | 0.00 | 0.00 | 0.00 | 41 | 1016.2 |
| 20260830233518 | 77 | 21 | 0.9 | 2.6 | 0.00 | 0.00 | 0.00 | 43 | 1016.4 |
| 20260830233019 | 76 | 17 | 0.9 | 7.0 | 0.00 | 0.00 | 0.00 | 43 | 1016.6 |
| 20260830232520 | 76 | 33 | 0.9 | 7.0 | 0.00 | 0.00 | 0.00 | 43 | 1016.6 |
| 20260830232018 | 76 | 38 | 2.6 | 7.8 | 0.00 | 0.00 | 0.00 | 42 | 1016.7 |
| 20260830231514 | 76 | 20 | 1.7 | 7.8 | 0.00 | 0.00 | 0.00 | 42 | 1016.8 |
| 20260830231019 | 75 | 169 | 1.7 | 5.2 | 0.00 | 0.00 | 0.00 | 43 | 1016.9 |
| 20260830231014 | 76 | 30 | 0.9 | 5.2 | 0.00 | 0.00 | 0.00 | 43 | 1016.8 |
| 20260830230513 | 75 | 163 | 1.7 | 4.3 | 0.00 | 0.00 | 0.00 | 44 | 1016.9 |
| 20260830230126 | 76 | 65 | 1.7 | 5.2 | 0.00 | 0.00 | 0.00 | 42 | 1017.0 |
| 20260830225012 | 76 | 91 | 1.7 | 4.3 | 0.00 | 0.00 | 0.00 | 43 | 1017.1 |
| 20260830224510 | 76 | 40 | 1.7 | 4.3 | 0.00 | 0.00 | 0.00 | 43 | 1017.1 |
| 20260830224010 | 76 | 13 | 1.7 | 4.3 | 0.00 | 0.00 | 0.00 | 43 | 1017.2 |
| 20260830223510 | 75 | 0 | 1.7 | 5.2 | 0.00 | 0.00 | 0.00 | 43 | 1017.3 |
| 20260830223011 | 76 | 106 | 0.9 | 5.2 | 0.00 | 0.00 | 0.00 | 45 | 1017.5 |
| 20260830222508 | 75 | 215 | 1.7 | 6.1 | 0.00 | 0.00 | 0.00 | 44 | 1017.6 |
| 20260830222007 | 75 | 82 | 1.7 | 6.1 | 0.00 | 0.00 | 0.00 | 44 | 1017.7 |
| 20260830221506 | 75 | 327 | 0.9 | 3.5 | 0.00 | 0.00 | 0.00 | 44 | 1017.8 |
| 20260830221012 | 75 | 308 | 2.6 | 8.7 | 0.00 | 0.00 | 0.00 | 44 | 1017.9 |
| 20260830221007 | 75 | 257 | 0.9 | 4.3 | 0.00 | 0.00 | 0.00 | 43 | 1017.8 |
| 20260830220006 | 74 | 11 | 2.6 | 8.7 | 0.00 | 0.00 | 0.00 | 45 | 1018.0 |
| 20260830215506 | 73 | 0 | 0.9 | 7.0 | 0.00 | 0.00 | 0.00 | 45 | 1018.1 |
| 20260830215006 | 73 | 288 | 0.9 | 4.3 | 0.00 | 0.00 | 0.00 | 45 | 1018.1 |
| 20260830214506 | 73 | 331 | 1.7 | 7.0 | 0.00 | 0.00 | 0.00 | 46 | 1018.2 |
| 20260830214010 | 74 | 180 | 1.7 | 7.8 | 0.00 | 0.00 | 0.00 | 44 | 1018.4 |
| 20260830214005 | 74 | 260 | 1.7 | 7.8 | 0.00 | 0.00 | 0.00 | 44 | 1018.3 |
| 20260830213504 | 74 | 111 | 0.9 | 7.8 | 0.00 | 0.00 | 0.00 | 46 | 1018.4 |
| 20260830212504 | 73 | 49 | 1.7 | 7.8 | 0.00 | 0.00 | 0.00 | 46 | 1018.5 |
| 20260830212004 | 73 | 24 | 2.6 | 7.0 | 0.00 | 0.00 | 0.00 | 47 | 1018.6 |
| 20260830211504 | 73 | 308 | 2.6 | 6.1 | 0.00 | 0.00 | 0.00 | 45 | 1018.6 |
| 20260830211004 | 73 | 178 | 2.6 | 6.1 | 0.00 | 0.00 | 0.00 | 46 | 1018.7 |